Regional Weather Roundup
Issued by NWS Upton, NY

Current Version | Previous Version | Graphics & Text | Print | Product List | Glossary Off
Versions: 1 2 3 4 5 6 7 8 9 10 11 12 13 14 15 16 17 18 19 20 21 22 23 24 25 26 27 28 29 30 31 32 33 34 35 36 37 38 39 40 41 42 43 44 45 46 47 48 49 50
133 ASUS41 KOKX 250708 RWROKX REGIONAL WEATHER ROUNDUP NATIONAL WEATHER SERVICE NEW YORK NY 300 AM EDT SAT MAR 25 2017 NOTE: "FAIR" INDICATES FEW OR NO CLOUDS BELOW 12,000 FEET WITH NO SIGNIFICANT WEATHER AND/OR OBSTRUCTIONS TO VISIBILITY. NYZ071-072-176-178-NJZ106-104-250800- NEW YORK CITY METRO AREA CITY SKY/WX TMP DP RH WIND PRES REMARKS Central Park MOCLDY 53 34 48 W9G17 30.10S Wall St Helipt CLOUDY 51 35 54 W9 30.09F LaGuardia APRT MOCLDY 55 34 45 SW9 30.07F Kennedy INTL CLOUDY 43 40 89 S9 30.09F Breezy Point N/A 45 N/A N/A SW6 N/A Newark/Liberty CLOUDY 50 34 54 SW10 30.08F Teterboro MOCLDY 47 35 63 CALM 30.08S $$ NYZ177-179-078>081-250800- LONG ISLAND NEW YORK CITY SKY/WX TMP DP RH WIND PRES REMARKS Jones Beach N/A 43 N/A N/A S10G16 N/A Matinecock PT N/A 50 N/A N/A SW12 N/A Farmingdale CLOUDY 46 38 73 SW7 30.08F MacArthur/ISP CLOUDY 45 39 79 SW9 30.08F Shirley CLOUDY 45 39 79 SW9 30.09F Westhampton CLOUDY 44 38 79 SW10 30.10F East Hampton N/A 44 38 81 SW6 30.08F Montauk N/A 46 40 79 SW12G20 30.08F $$ NYZ052-065-067-250800- HUDSON VALLEY CITY SKY/WX TMP DP RH WIND PRES REMARKS White Plains MOCLDY 47 32 56 CALM 30.06F Newburgh MOCLDY 41 36 81 W8 30.07S Montgomery MOCLDY 35 31 85 CALM 30.05F Poughkeepsie CLOUDY 35 31 85 CALM 30.06S Albany LGT RAIN 39 33 79 N3 30.10S $$ NJZ001-105-106-008-010-013-015-019>022-104-250800- NEW JERSEY CITY SKY/WX TMP DP RH WIND PRES REMARKS Newark/Liberty CLOUDY 50 34 54 SW10 30.08F Teterboro MOCLDY 47 35 63 CALM 30.08S Caldwell CLOUDY 49 33 54 CALM 30.09S Somerville MOCLDY 41 34 76 CALM 30.08F Linden N/A 51 33 50 CALM 30.08F Sussex MOCLDY 37 34 89 CALM 30.07F Andover N/A 44 34 67 S3 30.07S Trenton CLOUDY 48 35 60 SW5 30.10F Millville PTCLDY 57 47 69 SW9 30.14F Atlantic City CLOUDY 56 45 66 SW9 30.14F Wrightstown PTCLDY 48 40 72 SW3 30.09F Toms River PTCLDY 51 43 74 SW13 30.13F Belmar CLOUDY 51 40 65 SW10 30.11 $$ PAZ047>061-062-071-250800- EASTERN PENNSYLVANIA CITY SKY/WX TMP DP RH WIND PRES REMARKS Philadelphia NOT AVBL Allentown MOCLDY 41 34 76 CALM 30.09F Scranton PTCLDY 48 39 71 SW6 30.06F $$ CTZ002-004>006-009-010-012-RIZ004-006-007-MAZ004-011-015-250800- SOUTHERN NEW ENGLAND IN CT CITY SKY/WX TMP DP RH WIND PRES REMARKS Bradley INTL MOCLDY 36 32 85 NW5 30.08R WCI 32 Hartford MOCLDY 40 33 76 CALM 30.08R Danbury PTCLDY 39 33 79 CALM 30.07S Wtrbury/Oxford CLOUDY 43 30 61 SW3 30.07S Bridgeport MOCLDY 42 35 76 S6 30.07F Meriden CLOUDY 42 35 76 S9 30.06F New Haven CLOUDY 38 34 85 N3 30.08F Chester NOT AVBL Groton MOCLDY 42 37 82 SW3 30.07F Wilimantic CLOUDY 36 32 85 CALM 30.07S IN RI CITY SKY/WX TMP DP RH WIND PRES REMARKS Providence PTCLDY 43 34 70 CALM 30.08R Block Island CLOUDY 42 40 92 SW14 30.08F Westerly PTCLDY 41 37 86 CALM 30.08F IN MA CITY SKY/WX TMP DP RH WIND PRES REMARKS Boston MOCLDY 45 33 63 SW6 30.06F Worcester PTCLDY 41 31 67 W8 30.03S Westfield MOCLDY 34 31 88 CALM 30.06S Provincetown PTCLDY 40 37 89 SW7 30.06F Nantucket CLOUDY 43 39 86 SW20 30.06F $$ ANZ330-335-338-340-345-350-353-355-250800- COASTAL MARINE OBSERVATIONS STATION/POSITION TIME SKY/WX TEMP WIND PRES VSBY WAVE AIR SEA DIR/SP/G HT/PER (UTC) (F) (DEG/KT/KT) (MB) (MI) (FT/S) NY HARB ENTRANCE 0550 44 42 200/ 6/ 6 1019.9 4/ 7 20 S FIRE ISLAND 0650 44 40 210/ 12/ 14 1019.2 5/ 6 GREAT SOUTH BAY NOT AVBL 23 SSW MONTAUK P 0550 46 43 1019.0 7/ 7 15 E BARNEGAT LI 0630 42 N/A 5/ 7 HUDSON CANYON 0550 49 45 210/ 19/ 23 1021.5 8/ 7 KINGS POINT 0642 39 1018.2 EXECUTION ROCKS NOT AVBL CENTRAL LI SOUND 0630 40 220/ 2/ 4 N/A 1 EASTERN LI SOUND NOT AVBL ROBBINS REEF 0642 250/ 15/ 20 1018.4 $$ >>>>>>>>>>>>>>>>>>>>>>>>>>>> KEY <<<<<<<<<<<<<<<<<<<<<<<<<<< > < > SKY/WX - Sky Condition/Present Weather < > TMP - Temperature in Fahrenheit < > DP - Dew Point in Fahrenheit < > RH - Relative Humidity in Percent < > WIND - Direction (from) and Speed in MPH < > PRES - Mean Sea Level Pressure (inches of Hg) < > WCI - Wind Chill Index < > VSB - VISIBILITY IN MILES < > HX - HEAT INDEX < > TC - TEMPERATURE IN CELSIUS < > VRB - VARIABLE WIND DIRECTION < > < >>>>>>>>>>>>>>>>>>>>>>>>>>>> KEY <<<<<<<<<<<<<<<<<<<<<<<<<<<

USA.gov is the U.S. government's official web portal to all federal, state and local government web resources and services.